This is the latest recevied weather packets stored in our database for station/object KK7RJD. If no packets are shown the sender has not sent any weather packets the latest 10 day(s).
| Time | Temp. | Humidity | Pressure | Rain* | Wind** | Luminosity | Snow |
|---|---|---|---|---|---|---|---|
| 1777921344 | 11.67° C | 46% | 1012.8 hPa | 0 mm | - | 809 W/m² | - |
| 1777921040 | 12.22° C | 44% | 1012.5 hPa | 0 mm | - | 681 W/m² | - |
| 1777920737 | 12.22° C | 43% | 1012.8 hPa | 0 mm | - | 579 W/m² | - |
| 1777920433 | 12.22° C | 44% | 1012.9 hPa | 0 mm | - | 735 W/m² | - |
| 1777920129 | 12.22° C | 44% | 1012.9 hPa | 0 mm | - | 619 W/m² | - |
| 1777919825 | 12.78° C | 43% | 1012.9 hPa | 0 mm | - | 714 W/m² | - |
| 1777919522 | 12.22° C | 42% | 1012.9 hPa | 0 mm | - | 949 W/m² | - |
| 1777919220 | 12.78° C | 44% | 1013 hPa | 0 mm | - | 653 W/m² | - |
| 1777918917 | 12.78° C | 43% | 1013 hPa | 0 mm | - | 880 W/m² | - |
| 1777918615 | 13.33° C | 42% | 1013.4 hPa | 0 mm | - | 833 W/m² | - |
| 1777918312 | 12.78° C | 44% | 1013.2 hPa | 0 mm | - | 849 W/m² | - |
| 1777918011 | 12.78° C | 44% | 1013 hPa | 0 mm | - | 927 W/m² | - |
| 1777917709 | 12.78° C | 44% | 1013.2 hPa | 0 mm | - | 844 W/m² | - |
| 1777917406 | 12.22° C | 43% | 1013.4 hPa | 0 mm | - | 981 W/m² | - |
| 1777917103 | 12.22° C | 43% | 1013.3 hPa | 0 mm | - | 929 W/m² | - |
| 1777916801 | 12.22° C | 45% | 1013.6 hPa | 0 mm | - | 887 W/m² | - |
| 1777916497 | 11.67° C | 45% | 1013.3 hPa | 0 mm | - | 875 W/m² | - |
| 1777916195 | 11.67° C | 44% | 1013.3 hPa | 0 mm | - | 828 W/m² | - |
| 1777915892 | 11.67° C | 45% | 1013.4 hPa | 0 mm | - | 815 W/m² | - |
| 1777915589 | 11.67° C | 46% | 1013.5 hPa | 0 mm | - | 781 W/m² | - |
| 1777915285 | 11.11° C | 46% | 1013.3 hPa | 0 mm | - | 739 W/m² | - |
| 1777914981 | 11.11° C | 47% | 1013.5 hPa | 0 mm | - | 719 W/m² | - |
| 1777914679 | 11.11° C | 46% | 1013.3 hPa | 0 mm | - | 746 W/m² | - |
| 1777914375 | 11.11° C | 46% | 1013.5 hPa | 0 mm | - | 705 W/m² | - |
| 1777914073 | 11.11° C | 47% | 1013.5 hPa | 0 mm | - | 737 W/m² | - |
* Rain latest hour (hover to see other rain measurements)
** Current wind speed in m/s (hover to see current wind gust speed)